Time,TemperatureF,DewpointF,PressureIn,WindDirection,WindDirectionDegrees,WindSpeedMPH,WindSpeedGustMPH,Humidity,HourlyPrecipIn,Conditions,Clouds,dailyrainin,SoftwareType,DateUTC
2013-02-22 00:02:00,42.5,42.2,30.19,WNW,301,0.0,0.0,99,0.00,,,0.33,Wunderground v.1.15,2013-02-22 08:02:00,
2013-02-22 00:08:00,42.5,42.2,30.19,WNW,301,0.0,0.0,99,0.00,,,0.00,Wunderground v.1.15,2013-02-22 08:08:00,
2013-02-22 00:14:00,42.4,42.1,30.19,WNW,301,0.0,0.0,99,0.00,,,0.00,Wunderground v.1.15,2013-02-22 08:14:00,
2013-02-22 00:20:00,42.2,41.9,30.18,WNW,301,0.0,0.0,99,0.00,,,0.00,Wunderground v.1.15,2013-02-22 08:20:00,
2013-02-22 00:26:00,42.0,41.7,30.18,WNW,301,0.0,0.0,99,0.00,,,0.00,Wunderground v.1.15,2013-02-22 08:26:00,
2013-02-22 00:32:00,41.8,41.3,30.17,WNW,301,0.0,0.0,98,0.00,,,0.00,Wunderground v.1.15,2013-02-22 08:32:00,
2013-02-22 00:38:00,41.5,41.0,30.17,WNW,301,0.0,0.0,98,0.00,,,0.00,Wunderground v.1.15,2013-02-22 08:38:00,
2013-02-22 00:43:00,41.4,40.9,30.17,WNW,301,0.0,0.0,98,0.00,,,0.00,Wunderground v.1.15,2013-02-22 08:43:00,
2013-02-22 00:49:00,41.3,41.0,30.17,NNW,331,0.0,2.0,99,0.00,,,0.00,Wunderground v.1.15,2013-02-22 08:49:00,
2013-02-22 00:55:00,41.6,41.3,30.18,North,5,1.0,2.0,99,0.00,,,0.00,Wunderground v.1.15,2013-02-22 08:55:00,
2013-02-22 01:01:00,41.7,41.4,30.18,North,5,0.0,0.0,99,0.00,,,0.00,Wunderground v.1.15,2013-02-22 09:01:00,
2013-02-22 01:07:00,41.6,41.3,30.18,North,5,0.0,0.0,99,0.00,,,0.00,Wunderground v.1.15,2013-02-22 09:07:00,
2013-02-22 01:13:00,41.4,41.1,30.18,North,5,0.0,0.0,99,0.00,,,0.00,Wunderground v.1.15,2013-02-22 09:13:00,
2013-02-22 01:19:00,41.3,41.0,30.17,North,5,0.0,0.0,99,0.00,,,0.00,Wunderground v.1.15,2013-02-22 09:19:00,
2013-02-22 01:25:00,41.3,41.0,30.17,SE,136,0.0,1.0,99,0.00,,,0.00,Wunderground v.1.15,2013-02-22 09:25:00,
2013-02-22 01:31:00,41.3,41.0,30.17,SE,136,0.0,0.0,99,0.00,,,0.00,Wunderground v.1.15,2013-02-22 09:31:00,
2013-02-22 01:36:00,41.3,41.0,30.18,SE,136,0.0,1.0,99,0.00,,,0.00,Wunderground v.1.15,2013-02-22 09:36:00,
2013-02-22 01:42:00,41.4,41.1,30.18,SE,136,0.0,0.0,99,0.00,,,0.00,Wunderground v.1.15,2013-02-22 09:42:00,
2013-02-22 01:48:00,41.5,41.2,30.18,SE,136,0.0,0.0,99,0.00,,,0.00,Wunderground v.1.15,2013-02-22 09:48:00,
2013-02-22 01:54:00,41.5,41.2,30.18,SE,136,0.0,0.0,99,0.00,,,0.00,Wunderground v.1.15,2013-02-22 09:54:00,
2013-02-22 02:00:00,41.6,41.3,30.17,SE,136,0.0,0.0,99,0.00,,,0.00,Wunderground v.1.15,2013-02-22 10:00:00,
2013-02-22 02:06:00,41.6,41.3,30.17,SE,136,0.0,0.0,99,0.00,,,0.00,Wunderground v.1.15,2013-02-22 10:06:00,
2013-02-22 02:12:00,41.7,41.4,30.17,SE,136,0.0,0.0,99,0.00,,,0.00,Wunderground v.1.15,2013-02-22 10:12:00,
2013-02-22 02:18:00,41.7,41.4,30.17,SE,136,0.0,0.0,99,0.00,,,0.00,Wunderground v.1.15,2013-02-22 10:18:00,
2013-02-22 02:24:00,41.6,41.3,30.17,SE,136,0.0,0.0,99,0.00,,,0.00,Wunderground v.1.15,2013-02-22 10:24:00,
2013-02-22 02:30:00,41.6,41.3,30.17,SE,136,0.0,0.0,99,0.00,,,0.00,Wunderground v.1.15,2013-02-22 10:30:00,
2013-02-22 02:35:00,41.6,41.3,30.17,SE,136,0.0,0.0,99,0.00,,,0.00,Wunderground v.1.15,2013-02-22 10:35:00,
2013-02-22 02:41:00,41.6,41.3,30.17,SE,136,0.0,0.0,99,0.00,,,0.00,Wunderground v.1.15,2013-02-22 10:41:00,
2013-02-22 02:47:00,41.6,41.3,30.17,SE,136,0.0,0.0,99,0.00,,,0.00,Wunderground v.1.15,2013-02-22 10:47:00,
2013-02-22 02:53:00,41.7,41.4,30.16,NE,42,0.0,4.0,99,0.00,,,0.00,Wunderground v.1.15,2013-02-22 10:53:00,
2013-02-22 02:59:00,41.9,41.6,30.16,NE,42,1.0,4.0,99,0.00,,,0.00,Wunderground v.1.15,2013-02-22 10:59:00,
2013-02-22 03:05:00,42.1,41.8,30.17,NE,42,0.0,1.0,99,0.00,,,0.00,Wunderground v.1.15,2013-02-22 11:05:00,
2013-02-22 03:11:00,42.2,41.9,30.17,NE,42,0.0,0.0,99,0.00,,,0.00,Wunderground v.1.15,2013-02-22 11:11:00,
2013-02-22 03:16:00,42.2,41.9,30.17,NE,42,0.0,0.0,99,0.00,,,0.00,Wunderground v.1.15,2013-02-22 11:16:00,
2013-02-22 03:22:00,42.3,42.0,30.17,NE,42,0.0,0.0,99,0.00,,,0.00,Wunderground v.1.15,2013-02-22 11:22:00,
2013-02-22 03:29:00,42.3,42.0,30.16,SE,138,0.0,2.0,99,0.00,,,0.00,Wunderground v.1.15,2013-02-22 11:29:00,
2013-02-22 03:35:00,42.5,42.2,30.16,SE,138,1.0,2.0,99,0.00,,,0.00,Wunderground v.1.15,2013-02-22 11:35:00,
2013-02-22 03:41:00,42.6,42.3,30.16,SE,138,0.0,1.0,99,0.00,,,0.00,Wunderground v.1.15,2013-02-22 11:41:00,
2013-02-22 03:47:00,42.8,42.5,30.15,SE,138,0.0,1.0,99,0.00,,,0.00,Wunderground v.1.15,2013-02-22 11:47:00,
2013-02-22 03:53:00,43.0,42.7,30.15,East,90,0.0,2.0,99,0.00,,,0.00,Wunderground v.1.15,2013-02-22 11:53:00,
2013-02-22 03:59:00,43.1,42.8,30.14,East,90,0.0,2.0,99,0.00,,,0.00,Wunderground v.1.15,2013-02-22 11:59:00,
2013-02-22 04:04:00,43.0,42.7,30.14,East,90,0.0,0.0,99,0.00,,,0.00,Wunderground v.1.15,2013-02-22 12:04:00,
2013-02-22 04:10:00,43.1,42.8,30.14,East,90,0.0,0.0,99,0.00,,,0.00,Wunderground v.1.15,2013-02-22 12:10:00,
2013-02-22 04:16:00,42.9,42.6,30.13,East,90,0.0,0.0,99,0.00,,,0.00,Wunderground v.1.15,2013-02-22 12:16:00,
2013-02-22 04:22:00,43.0,42.7,30.13,East,90,0.0,0.0,99,0.00,,,0.00,Wunderground v.1.15,2013-02-22 12:22:00,
2013-02-22 04:27:00,43.1,42.8,30.14,East,90,0.0,0.0,99,0.00,,,0.00,Wunderground v.1.15,2013-02-22 12:27:00,
2013-02-22 04:33:00,43.3,43.0,30.13,East,90,0.0,1.0,99,0.00,,,0.00,Wunderground v.1.15,2013-02-22 12:33:00,
2013-02-22 04:39:00,43.7,43.4,30.13,NNE,19,0.0,1.0,99,0.00,,,0.00,Wunderground v.1.15,2013-02-22 12:39:00,
2013-02-22 04:45:00,44.2,43.9,30.13,NNE,19,0.0,1.0,99,0.00,,,0.00,Wunderground v.1.15,2013-02-22 12:45:00,
2013-02-22 04:51:00,44.3,44.0,30.13,NNE,19,0.0,0.0,99,0.00,,,0.00,Wunderground v.1.15,2013-02-22 12:51:00,
2013-02-22 04:57:00,44.3,44.0,30.13,NNE,24,0.0,3.0,99,0.00,,,0.00,Wunderground v.1.15,2013-02-22 12:57:00,
2013-02-22 05:03:00,44.3,44.0,30.13,NNE,24,0.0,0.0,99,0.00,,,0.00,Wunderground v.1.15,2013-02-22 13:03:00,
2013-02-22 05:09:00,44.4,44.1,30.13,East,101,0.0,0.0,99,0.00,,,0.00,Wunderground v.1.15,2013-02-22 13:09:00,
2013-02-22 05:15:00,44.4,44.1,30.13,East,101,0.0,1.0,99,0.00,,,0.00,Wunderground v.1.15,2013-02-22 13:15:00,
2013-02-22 05:21:00,44.4,44.1,30.13,East,101,0.0,0.0,99,0.00,,,0.00,Wunderground v.1.15,2013-02-22 13:21:00,
2013-02-22 05:27:00,44.4,44.1,30.12,East,101,0.0,1.0,99,0.00,,,0.00,Wunderground v.1.15,2013-02-22 13:27:00,
2013-02-22 05:33:00,44.5,44.2,30.12,East,101,0.0,1.0,99,0.00,,,0.00,Wunderground v.1.15,2013-02-22 13:33:00,
2013-02-22 05:38:00,44.5,44.2,30.12,East,101,0.0,1.0,99,0.00,,,0.00,Wunderground v.1.15,2013-02-22 13:38:00,
2013-02-22 05:44:00,44.5,44.2,30.12,NE,40,0.0,1.0,99,0.00,,,0.00,Wunderground v.1.15,2013-02-22 13:44:00,
2013-02-22 05:49:00,44.6,44.3,30.12,NE,39,0.0,2.0,99,0.00,,,0.00,Wunderground v.1.15,2013-02-22 13:49:00,
2013-02-22 05:55:00,44.6,44.3,30.11,NE,39,0.0,2.0,99,0.00,,,0.00,Wunderground v.1.15,2013-02-22 13:55:00,
2013-02-22 06:01:00,44.6,44.3,30.11,NE,39,0.0,0.0,99,0.00,,,0.00,Wunderground v.1.15,2013-02-22 14:01:00,
2013-02-22 06:07:00,44.7,44.4,30.11,NE,56,1.0,3.0,99,0.00,,,0.00,Wunderground v.1.15,2013-02-22 14:07:00,
2013-02-22 06:13:00,44.7,44.4,30.10,South,180,1.0,1.0,99,0.00,,,0.00,Wunderground v.1.15,2013-02-22 14:13:00,
2013-02-22 06:19:00,44.7,44.4,30.10,South,180,0.0,1.0,99,0.00,,,0.00,Wunderground v.1.15,2013-02-22 14:19:00,
2013-02-22 06:25:00,44.8,44.5,30.09,NE,36,0.0,1.0,99,0.00,,,0.00,Wunderground v.1.15,2013-02-22 14:25:00,
2013-02-22 06:31:00,44.8,44.5,30.09,NE,36,0.0,0.0,99,0.00,,,0.00,Wunderground v.1.15,2013-02-22 14:31:00,
2013-02-22 06:37:00,44.8,44.5,30.09,NE,36,0.0,0.0,99,0.00,,,0.01,Wunderground v.1.15,2013-02-22 14:37:00,
2013-02-22 06:43:00,44.8,44.5,30.09,ENE,58,0.0,3.0,99,0.00,,,0.01,Wunderground v.1.15,2013-02-22 14:43:00,
2013-02-22 06:49:00,44.8,44.5,30.09,NE,40,1.0,3.0,99,0.06,,,0.02,Wunderground v.1.15,2013-02-22 14:49:00,
2013-02-22 06:55:00,44.8,44.3,30.09,NE,41,1.0,2.0,98,0.06,,,0.02,Wunderground v.1.15,2013-02-22 14:55:00,
2013-02-22 07:01:00,44.8,44.5,30.08,NE,41,1.0,2.0,99,0.05,,,0.03,Wunderground v.1.15,2013-02-22 15:01:00,
2013-02-22 07:06:00,44.8,44.3,30.08,NE,40,1.0,2.0,98,0.05,,,0.03,Wunderground v.1.15,2013-02-22 15:06:00,
2013-02-22 07:12:00,44.7,44.2,30.08,SE,139,0.0,3.0,98,0.06,,,0.04,Wunderground v.1.15,2013-02-22 15:12:00,
2013-02-22 07:17:00,44.7,44.2,30.08,ESE,121,0.0,3.0,98,0.05,,,0.04,Wunderground v.1.15,2013-02-22 15:17:00,
2013-02-22 07:22:00,44.8,44.3,30.08,NE,43,0.0,2.0,98,0.04,,,0.04,Wunderground v.1.15,2013-02-22 15:22:00,
2013-02-22 07:28:00,44.8,44.3,30.08,NE,43,0.0,2.0,98,0.00,,,0.04,Wunderground v.1.15,2013-02-22 15:28:00,
2013-02-22 07:34:00,44.8,44.3,30.08,East,94,0.0,0.0,98,0.00,,,0.05,Wunderground v.1.15,2013-02-22 15:34:00,
2013-02-22 07:40:00,44.8,44.3,30.08,ENE,69,0.0,2.0,98,0.08,,,0.05,Wunderground v.1.15,2013-02-22 15:40:00,
2013-02-22 07:46:00,44.9,44.4,30.07,NE,42,1.0,2.0,98,0.08,,,0.06,Wunderground v.1.15,2013-02-22 15:46:00,
2013-02-22 07:52:00,45.0,44.5,30.07,NNE,13,1.0,1.0,98,0.05,,,0.06,Wunderground v.1.15,2013-02-22 15:52:00,
2013-02-22 07:58:00,45.0,44.5,30.07,NNW,340,1.0,1.0,98,0.04,,,0.07,Wunderground v.1.15,2013-02-22 15:58:00,
2013-02-22 08:04:00,45.1,44.6,30.07,SSE,148,0.0,4.0,98,0.04,,,0.07,Wunderground v.1.15,2013-02-22 16:04:00,
2013-02-22 08:10:00,45.2,44.7,30.06,SE,143,1.0,1.0,98,0.04,,,0.07,Wunderground v.1.15,2013-02-22 16:10:00,
2013-02-22 08:15:00,45.3,44.8,30.07,ESE,115,1.0,4.0,98,0.00,,,0.08,Wunderground v.1.15,2013-02-22 16:15:00,
2013-02-22 08:21:00,45.4,44.9,30.06,NNE,32,1.0,2.0,98,0.00,,,0.08,Wunderground v.1.15,2013-02-22 16:21:00,
2013-02-22 08:27:00,45.4,44.9,30.06,NNE,27,1.0,3.0,98,0.00,,,0.08,Wunderground v.1.15,2013-02-22 16:27:00,
2013-02-22 08:33:00,45.5,45.0,30.05,North,5,1.0,4.0,98,0.00,,,0.08,Wunderground v.1.15,2013-02-22 16:33:00,
2013-02-22 08:39:00,45.6,45.1,30.05,SSE,159,2.0,4.0,98,0.00,,,0.08,Wunderground v.1.15,2013-02-22 16:39:00,
2013-02-22 08:45:00,45.7,45.2,30.05,South,190,2.0,3.0,98,0.00,,,0.08,Wunderground v.1.15,2013-02-22 16:45:00,
2013-02-22 08:51:00,45.8,45.3,30.05,NNW,348,1.0,1.0,98,0.00,,,0.08,Wunderground v.1.15,2013-02-22 16:51:00,
2013-02-22 08:56:00,45.8,45.3,30.05,North,360,1.0,2.0,98,0.00,,,0.08,Wunderground v.1.15,2013-02-22 16:56:00,
2013-02-22 09:02:00,45.8,45.3,30.04,WSW,252,1.0,5.0,98,0.00,,,0.09,Wunderground v.1.15,2013-02-22 17:02:00,
2013-02-22 09:08:00,45.9,45.4,30.04,South,180,1.0,5.0,98,0.06,,,0.10,Wunderground v.1.15,2013-02-22 17:08:00,
2013-02-22 09:14:00,46.0,45.5,30.04,NW,304,1.0,2.0,98,0.06,,,0.10,Wunderground v.1.15,2013-02-22 17:14:00,
2013-02-22 09:20:00,46.1,45.6,30.04,SSE,150,1.0,3.0,98,0.04,,,0.10,Wunderground v.1.15,2013-02-22 17:20:00,
2013-02-22 09:28:00,46.3,45.8,30.04,ESE,115,2.0,5.0,98,0.17,,,0.12,Wunderground v.1.15,2013-02-22 17:28:00,
2013-02-22 09:33:00,46.3,45.8,30.04,NNE,14,2.0,2.0,98,0.10,,,0.12,Wunderground v.1.15,2013-02-22 17:33:00,
2013-02-22 09:39:00,46.4,45.9,30.04,NE,34,1.0,3.0,98,0.07,,,0.13,Wunderground v.1.15,2013-02-22 17:39:00,
2013-02-22 09:44:00,46.5,45.7,30.04,ENE,69,2.0,4.0,97,0.14,,,0.14,Wunderground v.1.15,2013-02-22 17:44:00,
2013-02-22 09:50:00,46.6,45.8,30.05,ENE,57,3.0,3.0,97,0.15,,,0.16,Wunderground v.1.15,2013-02-22 17:50:00,
2013-02-22 09:56:00,46.7,45.9,30.05,West,277,3.0,7.0,97,0.19,,,0.17,Wunderground v.1.15,2013-02-22 17:56:00,
2013-02-22 10:02:00,46.8,46.0,30.06,NW,314,2.0,2.0,97,0.10,,,0.18,Wunderground v.1.15,2013-02-22 18:02:00,
2013-02-22 10:08:00,46.9,46.1,30.05,NW,319,2.0,7.0,97,0.10,,,0.19,Wunderground v.1.15,2013-02-22 18:08:00,
2013-02-22 10:14:00,47.0,46.2,30.05,SW,219,2.0,4.0,97,0.09,,,0.20,Wunderground v.1.15,2013-02-22 18:14:00,
2013-02-22 10:20:00,47.2,46.4,30.04,SW,227,3.0,7.0,97,0.09,,,0.21,Wunderground v.1.15,2013-02-22 18:20:00,
2013-02-22 10:26:00,47.2,46.1,30.04,West,272,2.0,7.0,96,0.10,,,0.22,Wunderground v.1.15,2013-02-22 18:26:00,
2013-02-22 10:31:00,47.2,46.4,30.04,South,175,2.0,7.0,97,0.14,,,0.23,Wunderground v.1.15,2013-02-22 18:31:00,
2013-02-22 10:37:00,47.2,45.8,30.03,West,270,3.0,7.0,95,0.10,,,0.24,Wunderground v.1.15,2013-02-22 18:37:00,
2013-02-22 10:43:00,47.2,45.8,30.03,SE,130,2.0,3.0,95,0.18,,,0.26,Wunderground v.1.15,2013-02-22 18:43:00,
2013-02-22 10:49:00,47.2,46.1,30.03,West,279,2.0,4.0,96,0.15,,,0.28,Wunderground v.1.15,2013-02-22 18:49:00,
2013-02-22 10:55:00,47.3,46.2,30.03,SSW,200,3.0,4.0,96,0.17,,,0.30,Wunderground v.1.15,2013-02-22 18:55:00,
2013-02-22 11:01:00,47.4,45.8,30.03,WNW,284,3.0,5.0,94,0.21,,,0.32,Wunderground v.1.15,2013-02-22 19:01:00,
2013-02-22 11:07:00,47.3,45.9,30.03,West,265,3.0,7.0,95,0.22,,,0.34,Wunderground v.1.15,2013-02-22 19:07:00,
2013-02-22 11:13:00,47.3,45.7,30.04,SSW,202,4.0,9.0,94,0.29,,,0.36,Wunderground v.1.15,2013-02-22 19:13:00,
2013-02-22 11:19:00,47.2,45.6,30.04,West,268,4.0,9.0,94,0.27,,,0.38,Wunderground v.1.15,2013-02-22 19:19:00,
2013-02-22 11:25:00,47.3,45.7,30.03,NNW,340,4.0,12.0,94,0.16,,,0.39,Wunderground v.1.15,2013-02-22 19:25:00,
2013-02-22 11:30:00,47.3,45.7,30.03,WSW,257,6.0,6.0,94,0.13,,,0.40,Wunderground v.1.15,2013-02-22 19:30:00,
2013-02-22 11:36:00,47.2,45.6,30.03,NNW,341,4.0,8.0,94,0.15,,,0.42,Wunderground v.1.15,2013-02-22 19:36:00,
2013-02-22 11:42:00,46.9,45.5,30.03,West,277,3.0,4.0,95,0.21,,,0.44,Wunderground v.1.15,2013-02-22 19:42:00,
2013-02-22 11:48:00,46.8,45.7,30.02,NNE,21,2.0,5.0,96,0.12,,,0.45,Wunderground v.1.15,2013-02-22 19:48:00,
2013-02-22 11:54:00,46.8,45.7,30.02,South,180,2.0,6.0,96,0.15,,,0.47,Wunderground v.1.15,2013-02-22 19:54:00,
2013-02-22 12:00:00,47.0,45.6,30.02,WSW,256,3.0,3.0,95,0.12,,,0.49,Wunderground v.1.15,2013-02-22 20:00:00,
2013-02-22 12:06:00,46.9,45.8,30.02,ENE,73,2.0,4.0,96,0.17,,,0.50,Wunderground v.1.15,2013-02-22 20:06:00,
2013-02-22 12:12:00,46.8,45.7,30.02,SSW,209,1.0,2.0,96,0.21,,,0.52,Wunderground v.1.15,2013-02-22 20:12:00,
2013-02-22 12:18:00,46.8,45.7,30.01,East,92,2.0,4.0,96,0.24,,,0.54,Wunderground v.1.15,2013-02-22 20:18:00,
2013-02-22 12:24:00,46.8,45.7,30.01,NE,36,3.0,5.0,96,0.24,,,0.56,Wunderground v.1.15,2013-02-22 20:24:00,
2013-02-22 12:30:00,46.8,45.4,30.00,SW,233,4.0,4.0,95,0.20,,,0.58,Wunderground v.1.15,2013-02-22 20:30:00,
2013-02-22 12:36:00,46.8,45.4,30.00,NNE,19,4.0,8.0,95,0.26,,,0.60,Wunderground v.1.15,2013-02-22 20:36:00,
2013-02-22 12:42:00,46.9,45.5,29.99,NE,39,3.0,6.0,95,0.16,,,0.62,Wunderground v.1.15,2013-02-22 20:42:00,
2013-02-22 12:48:00,46.9,45.5,29.99,SW,233,3.0,6.0,95,0.26,,,0.64,Wunderground v.1.15,2013-02-22 20:48:00,
2013-02-22 12:54:00,47.0,45.6,29.99,West,270,3.0,8.0,95,0.14,,,0.65,Wunderground v.1.15,2013-02-22 20:54:00,
2013-02-22 13:00:00,47.1,45.7,29.98,WSW,254,4.0,4.0,95,0.14,,,0.67,Wunderground v.1.15,2013-02-22 21:00:00,
2013-02-22 13:06:00,47.1,45.7,29.99,West,269,3.0,6.0,95,0.12,,,0.68,Wunderground v.1.15,2013-02-22 21:06:00,
2013-02-22 13:12:00,47.1,46.0,29.97,NE,52,2.0,3.0,96,0.22,,,0.70,Wunderground v.1.15,2013-02-22 21:12:00,
2013-02-22 13:18:00,47.0,45.9,29.97,South,175,2.0,8.0,96,0.22,,,0.72,Wunderground v.1.15,2013-02-22 21:18:00,
2013-02-22 13:24:00,47.1,46.0,29.98,ENE,59,3.0,4.0,96,0.26,,,0.73,Wunderground v.1.15,2013-02-22 21:24:00,
2013-02-22 13:30:00,47.1,46.0,29.98,West,268,3.0,3.0,96,0.42,,,0.76,Wunderground v.1.15,2013-02-22 21:30:00,
2013-02-22 13:36:00,47.2,46.1,29.97,ESE,117,3.0,6.0,96,0.23,,,0.78,Wunderground v.1.15,2013-02-22 21:36:00,
2013-02-22 13:42:00,47.3,46.2,29.97,NNE,30,5.0,6.0,96,0.14,,,0.79,Wunderground v.1.15,2013-02-22 21:42:00,
2013-02-22 13:48:00,47.4,46.3,29.97,WSW,257,5.0,7.0,96,0.47,,,0.82,Wunderground v.1.15,2013-02-22 21:48:00,
2013-02-22 13:53:00,47.4,46.3,29.97,West,277,3.0,5.0,96,0.14,,,0.83,Wunderground v.1.15,2013-02-22 21:53:00,
2013-02-22 13:59:00,47.4,46.3,29.96,WNW,303,2.0,5.0,96,0.13,,,0.85,Wunderground v.1.15,2013-02-22 21:59:00,
2013-02-22 14:04:00,47.5,46.4,29.97,WNW,287,3.0,10.0,96,0.12,,,0.86,Wunderground v.1.15,2013-02-22 22:04:00,
2013-02-22 14:10:00,47.7,46.3,29.95,West,269,6.0,6.0,95,0.09,,,0.86,Wunderground v.1.15,2013-02-22 22:10:00,
2013-02-22 14:15:00,47.7,46.6,29.95,NW,308,6.0,8.0,96,0.08,,,0.87,Wunderground v.1.15,2013-02-22 22:15:00,
2013-02-22 14:21:00,47.7,46.6,29.95,WNW,292,6.0,6.0,96,0.11,,,0.88,Wunderground v.1.15,2013-02-22 22:21:00,
2013-02-22 14:27:00,47.7,46.6,29.95,WSW,246,4.0,7.0,96,0.07,,,0.89,Wunderground v.1.15,2013-02-22 22:27:00,
2013-02-22 14:33:00,47.8,46.7,29.95,WNW,297,4.0,7.0,96,0.12,,,0.90,Wunderground v.1.15,2013-02-22 22:33:00,
2013-02-22 14:39:00,47.9,46.8,29.94,West,263,5.0,11.0,96,0.15,,,0.92,Wunderground v.1.15,2013-02-22 22:39:00,
2013-02-22 14:45:00,48.0,46.9,29.95,West,274,5.0,9.0,96,0.09,,,0.92,Wunderground v.1.15,2013-02-22 22:45:00,
2013-02-22 14:51:00,48.0,46.9,29.95,West,259,5.0,9.0,96,0.66,,,0.98,Wunderground v.1.15,2013-02-22 22:51:00,
2013-02-22 14:57:00,47.8,46.4,29.96,NW,313,7.0,13.0,95,0.18,,,1.00,Wunderground v.1.15,2013-02-22 22:57:00,
2013-02-22 15:03:00,47.3,45.9,29.96,NW,306,4.0,7.0,95,0.06,,,1.00,Wunderground v.1.15,2013-02-22 23:03:00,
2013-02-22 15:08:00,47.1,45.7,29.97,WNW,286,2.0,7.0,95,0.04,,,1.00,Wunderground v.1.15,2013-02-22 23:08:00,
2013-02-22 15:13:00,47.0,45.9,29.97,WNW,288,1.0,1.0,96,0.04,,,1.01,Wunderground v.1.15,2013-02-22 23:13:00,
2013-02-22 15:19:00,46.9,46.1,29.97,WNW,288,0.0,1.0,97,0.04,,,1.01,Wunderground v.1.15,2013-02-22 23:19:00,
2013-02-22 15:25:00,47.0,46.2,29.97,WNW,286,0.0,2.0,97,0.04,,,1.01,Wunderground v.1.15,2013-02-22 23:25:00,
2013-02-22 15:31:00,47.2,46.4,29.97,NW,304,2.0,4.0,97,0.00,,,1.01,Wunderground v.1.15,2013-02-22 23:31:00,
2013-02-22 15:37:00,47.7,46.6,29.97,WNW,282,3.0,13.0,96,0.00,,,1.01,Wunderground v.1.15,2013-02-22 23:37:00,
2013-02-22 15:43:00,48.1,47.0,29.97,NW,308,3.0,3.0,96,0.00,,,1.01,Wunderground v.1.15,2013-02-22 23:43:00,
2013-02-22 15:49:00,48.3,47.5,29.97,WNW,292,1.0,4.0,97,0.00,,,1.01,Wunderground v.1.15,2013-02-22 23:49:00,
2013-02-22 15:55:00,48.4,47.0,29.97,WNW,288,2.0,6.0,95,0.00,,,1.01,Wunderground v.1.15,2013-02-22 23:55:00,
2013-02-22 16:01:00,48.5,46.9,29.97,NW,304,2.0,2.0,94,0.00,,,1.01,Wunderground v.1.15,2013-02-23 00:01:00,
2013-02-22 16:06:00,48.6,47.2,29.97,NW,319,1.0,2.0,95,0.00,,,1.01,Wunderground v.1.15,2013-02-23 00:06:00,
2013-02-22 16:12:00,48.6,47.0,29.97,WNW,302,1.0,2.0,94,0.00,,,1.01,Wunderground v.1.15,2013-02-23 00:12:00,
2013-02-22 16:18:00,48.5,46.6,29.97,NW,312,1.0,2.0,93,0.00,,,1.01,Wunderground v.1.15,2013-02-23 00:18:00,
2013-02-22 16:24:00,48.3,46.7,29.97,WNW,301,0.0,1.0,94,0.00,,,1.01,Wunderground v.1.15,2013-02-23 00:24:00,
2013-02-22 16:30:00,48.0,46.1,29.97,NW,306,1.0,1.0,93,0.26,,,1.05,Wunderground v.1.15,2013-02-23 00:30:00,
2013-02-22 16:35:00,47.4,45.5,29.97,NW,308,1.0,3.0,93,0.29,,,1.07,Wunderground v.1.15,2013-02-23 00:35:00,
2013-02-22 16:41:00,47.4,46.0,29.96,NW,304,2.0,3.0,95,0.07,,,1.07,Wunderground v.1.15,2013-02-23 00:41:00,
2013-02-22 16:47:00,47.6,46.2,29.97,WSW,255,4.0,7.0,95,0.04,,,1.07,Wunderground v.1.15,2013-02-23 00:47:00,
2013-02-22 16:52:00,47.7,46.3,29.97,West,281,4.0,5.0,95,0.19,,,1.09,Wunderground v.1.15,2013-02-23 00:52:00,
2013-02-22 16:58:00,47.6,46.0,29.97,West,267,5.0,9.0,94,0.10,,,1.09,Wunderground v.1.15,2013-02-23 00:58:00,
2013-02-22 17:04:00,47.4,46.0,29.98,NNW,336,4.0,5.0,95,0.05,,,1.09,Wunderground v.1.15,2013-02-23 01:04:00,
2013-02-22 17:10:00,46.5,44.6,29.98,WNW,288,2.0,8.0,93,0.04,,,1.10,Wunderground v.1.15,2013-02-23 01:10:00,
2013-02-22 17:16:00,45.8,43.9,29.98,NW,325,2.0,8.0,93,0.04,,,1.10,Wunderground v.1.15,2013-02-23 01:16:00,
2013-02-22 17:22:00,45.5,43.9,29.98,WNW,291,1.0,1.0,94,0.04,,,1.10,Wunderground v.1.15,2013-02-23 01:22:00,
2013-02-22 17:27:00,45.4,44.1,29.98,WNW,291,0.0,1.0,95,0.00,,,1.10,Wunderground v.1.15,2013-02-23 01:27:00,
2013-02-22 17:33:00,45.3,44.0,29.98,WSW,252,0.0,0.0,95,0.00,,,1.10,Wunderground v.1.15,2013-02-23 01:33:00,
2013-02-22 17:39:00,45.2,44.1,29.98,WSW,252,0.0,0.0,96,0.00,,,1.10,Wunderground v.1.15,2013-02-23 01:39:00,
2013-02-22 17:45:00,45.1,44.0,29.98,WSW,252,0.0,0.0,96,0.00,,,1.10,Wunderground v.1.15,2013-02-23 01:45:00,
2013-02-22 17:51:00,45.0,43.9,29.98,WSW,252,0.0,0.0,96,0.00,,,1.10,Wunderground v.1.15,2013-02-23 01:51:00,
2013-02-22 17:56:00,45.0,43.9,29.99,WNW,288,0.0,1.0,96,0.00,,,1.10,Wunderground v.1.15,2013-02-23 01:56:00,
2013-02-22 18:02:00,45.2,44.1,29.99,NNW,335,1.0,4.0,96,0.00,,,1.10,Wunderground v.1.15,2013-02-23 02:02:00,
2013-02-22 18:08:00,45.1,43.8,29.99,NW,311,2.0,4.0,95,0.00,,,1.10,Wunderground v.1.15,2013-02-23 02:08:00,
2013-02-22 18:13:00,45.0,43.7,29.99,NW,325,1.0,2.0,95,0.00,,,1.10,Wunderground v.1.15,2013-02-23 02:13:00,
2013-02-22 18:19:00,44.9,43.6,30.00,NNW,329,1.0,2.0,95,0.00,,,1.10,Wunderground v.1.15,2013-02-23 02:19:00,
2013-02-22 18:25:00,44.8,43.5,30.00,NNW,332,1.0,1.0,95,0.00,,,1.10,Wunderground v.1.15,2013-02-23 02:25:00,
2013-02-22 18:30:00,44.7,43.6,30.01,NNW,332,0.0,0.0,96,0.00,,,1.10,Wunderground v.1.15,2013-02-23 02:30:00,
2013-02-22 18:36:00,44.7,43.4,30.01,WNW,295,1.0,3.0,95,0.00,,,1.10,Wunderground v.1.15,2013-02-23 02:36:00,
2013-02-22 18:42:00,44.6,43.3,30.01,WNW,288,1.0,1.0,95,0.00,,,1.10,Wunderground v.1.15,2013-02-23 02:42:00,
2013-02-22 18:47:00,44.6,43.3,30.01,NW,308,1.0,2.0,95,0.00,,,1.10,Wunderground v.1.15,2013-02-23 02:47:00,
2013-02-22 18:53:00,44.5,43.2,30.01,West,270,0.0,1.0,95,0.00,,,1.10,Wunderground v.1.15,2013-02-23 02:53:00,
2013-02-22 18:59:00,44.5,43.2,30.02,NW,309,1.0,2.0,95,0.00,,,1.10,Wunderground v.1.15,2013-02-23 02:59:00,
2013-02-22 19:05:00,44.3,42.7,30.02,NW,309,0.0,2.0,94,0.00,,,1.10,Wunderground v.1.15,2013-02-23 03:05:00,
2013-02-22 19:10:00,44.1,42.5,30.02,NW,309,0.0,0.0,94,0.00,,,1.10,Wunderground v.1.15,2013-02-23 03:10:00,
2013-02-22 19:16:00,43.9,41.4,30.02,NW,316,1.0,3.0,91,0.00,,,1.10,Wunderground v.1.15,2013-02-23 03:16:00,
2013-02-22 19:22:00,43.8,41.6,30.02,NW,316,1.0,1.0,92,0.00,,,1.10,Wunderground v.1.15,2013-02-23 03:22:00,
2013-02-22 19:28:00,43.6,41.4,30.02,NW,316,0.0,2.0,92,0.00,,,1.10,Wunderground v.1.15,2013-02-23 03:28:00,
2013-02-22 19:34:00,43.6,41.4,30.03,West,278,1.0,5.0,92,0.00,,,1.10,Wunderground v.1.15,2013-02-23 03:34:00,
2013-02-22 19:40:00,43.8,40.8,30.03,NW,312,3.0,3.0,89,0.00,,,1.10,Wunderground v.1.15,2013-02-23 03:40:00,
2013-02-22 19:46:00,43.7,40.1,30.03,West,276,3.0,5.0,87,0.00,,,1.10,Wunderground v.1.15,2013-02-23 03:46:00,
2013-02-22 19:52:00,43.4,40.1,30.03,NW,317,2.0,3.0,88,0.00,,,1.10,Wunderground v.1.15,2013-02-23 03:52:00,
2013-02-22 19:58:00,43.1,39.8,30.03,NNW,338,1.0,3.0,88,0.00,,,1.10,Wunderground v.1.15,2013-02-23 03:58:00,
2013-02-22 20:04:00,42.7,39.4,30.03,NNE,17,0.0,1.0,88,0.00,,,1.10,Wunderground v.1.15,2013-02-23 04:04:00,
2013-02-22 20:09:00,42.4,39.4,30.03,NW,319,0.0,1.0,89,0.00,,,1.10,Wunderground v.1.15,2013-02-23 04:09:00,
2013-02-22 20:14:00,42.0,39.6,30.03,WNW,300,0.0,0.0,91,0.00,,,1.10,Wunderground v.1.15,2013-02-23 04:14:00,
2013-02-22 20:19:00,41.6,39.2,30.03,WNW,300,0.0,0.0,91,0.00,,,1.10,Wunderground v.1.15,2013-02-23 04:19:00,
2013-02-22 20:24:00,41.2,39.1,30.03,WNW,300,0.0,0.0,92,0.00,,,1.10,Wunderground v.1.15,2013-02-23 04:24:00,
2013-02-22 20:29:00,40.9,39.0,30.04,WNW,300,0.0,0.0,93,0.00,,,1.10,Wunderground v.1.15,2013-02-23 04:29:00,
2013-02-22 20:34:00,40.5,38.9,30.05,WNW,300,0.0,0.0,94,0.00,,,1.10,Wunderground v.1.15,2013-02-23 04:34:00,
2013-02-22 20:40:00,40.2,38.9,30.06,WNW,300,0.0,0.0,95,0.00,,,1.10,Wunderground v.1.15,2013-02-23 04:40:00,
2013-02-22 20:46:00,39.8,38.5,30.06,WNW,300,0.0,0.0,95,0.00,,,1.10,Wunderground v.1.15,2013-02-23 04:46:00,
2013-02-22 20:52:00,39.6,38.3,30.06,WNW,300,0.0,0.0,95,0.00,,,1.10,Wunderground v.1.15,2013-02-23 04:52:00,
2013-02-22 20:58:00,39.1,37.8,30.07,WNW,300,0.0,1.0,95,0.00,,,1.10,Wunderground v.1.15,2013-02-23 04:58:00,
2013-02-22 21:00:00,39.0,37.7,30.07,WNW,300,0.0,0.0,95,0.00,,,1.10,Wunderground v.1.15,2013-02-23 05:00:00,
2013-02-22 21:01:00,39.0,37.7,30.07,WNW,300,0.0,0.0,95,0.00,,,1.10,Wunderground v.1.15,2013-02-23 05:01:00,
2013-02-22 21:04:00,38.9,37.9,30.07,WNW,300,0.0,0.0,96,0.00,,,1.10,Wunderground v.1.15,2013-02-23 05:04:00,
2013-02-22 21:10:00,38.9,37.9,30.07,WNW,300,0.0,0.0,96,0.00,,,1.10,Wunderground v.1.15,2013-02-23 05:10:00,
2013-02-22 21:13:00,39.0,38.2,30.07,WNW,300,0.0,0.0,97,0.00,,,1.10,Wunderground v.1.15,2013-02-23 05:13:00,
2013-02-22 21:19:00,39.2,38.4,30.07,WNW,300,0.0,0.0,97,0.00,,,1.10,Wunderground v.1.15,2013-02-23 05:19:00,
2013-02-22 21:25:00,39.2,38.4,30.07,WNW,300,0.0,0.0,97,0.00,,,1.10,Wunderground v.1.15,2013-02-23 05:25:00,
2013-02-22 21:31:00,39.3,38.5,30.07,WNW,300,0.0,0.0,97,0.00,,,1.10,Wunderground v.1.15,2013-02-23 05:31:00,
2013-02-22 21:37:00,39.3,38.5,30.08,WNW,300,0.0,0.0,97,0.00,,,1.10,Wunderground v.1.15,2013-02-23 05:37:00,
2013-02-22 21:43:00,39.2,38.4,30.07,WNW,300,0.0,0.0,97,0.00,,,1.10,Wunderground v.1.15,2013-02-23 05:43:00,
2013-02-22 21:48:00,39.2,38.4,30.08,WNW,300,0.0,0.0,97,0.00,,,1.10,Wunderground v.1.15,2013-02-23 05:48:00,
2013-02-22 21:54:00,39.3,38.5,30.08,WNW,301,0.0,1.0,97,0.00,,,1.10,Wunderground v.1.15,2013-02-23 05:54:00,
2013-02-22 21:59:00,39.4,38.9,30.08,South,173,1.0,3.0,98,0.00,,,1.11,Wunderground v.1.15,2013-02-23 05:59:00,
2013-02-22 22:05:00,39.5,39.0,30.08,SW,224,1.0,1.0,98,0.00,,,1.11,Wunderground v.1.15,2013-02-23 06:05:00,
2013-02-22 22:11:00,39.6,39.1,30.08,SW,224,0.0,1.0,98,0.07,,,1.12,Wunderground v.1.15,2013-02-23 06:11:00,
2013-02-22 22:18:00,39.7,39.2,30.09,North,5,0.0,3.0,98,0.05,,,1.12,Wunderground v.1.15,2013-02-23 06:18:00,
2013-02-22 22:23:00,39.8,39.3,30.09,NW,322,2.0,7.0,98,0.04,,,1.12,Wunderground v.1.15,2013-02-23 06:23:00,
2013-02-22 22:28:00,40.4,39.4,30.10,WNW,295,3.0,7.0,96,0.00,,,1.12,Wunderground v.1.15,2013-02-23 06:28:00,
2013-02-22 22:34:00,40.7,39.4,30.10,WNW,302,2.0,7.0,95,0.00,,,1.12,Wunderground v.1.15,2013-02-23 06:34:00,
2013-02-22 22:40:00,40.8,39.2,30.10,NNW,345,2.0,2.0,94,0.00,,,1.12,Wunderground v.1.15,2013-02-23 06:40:00,
2013-02-22 22:46:00,40.6,39.0,30.11,NNW,344,0.0,2.0,94,0.00,,,1.12,Wunderground v.1.15,2013-02-23 06:46:00,
2013-02-22 22:52:00,40.5,38.9,30.11,NNW,344,0.0,0.0,94,0.00,,,1.12,Wunderground v.1.15,2013-02-23 06:52:00,
2013-02-22 22:57:00,40.4,38.8,30.11,NNW,344,0.0,1.0,94,0.00,,,1.12,Wunderground v.1.15,2013-02-23 06:57:00,
2013-02-22 23:03:00,40.2,38.9,30.11,NNW,344,0.0,0.0,95,0.00,,,1.12,Wunderground v.1.15,2013-02-23 07:03:00,
2013-02-22 23:09:00,40.1,38.8,30.12,NNW,344,0.0,0.0,95,0.00,,,1.12,Wunderground v.1.15,2013-02-23 07:09:00,
2013-02-22 23:15:00,40.0,38.7,30.12,NNW,344,0.0,0.0,95,0.00,,,1.12,Wunderground v.1.15,2013-02-23 07:15:00,
2013-02-22 23:21:00,39.8,38.5,30.11,NNW,344,0.0,0.0,95,0.00,,,1.12,Wunderground v.1.15,2013-02-23 07:21:00,
2013-02-22 23:27:00,39.6,38.6,30.12,NNW,344,0.0,0.0,96,0.00,,,1.12,Wunderground v.1.15,2013-02-23 07:27:00,
2013-02-22 23:33:00,39.4,38.4,30.12,NNW,344,0.0,0.0,96,0.00,,,1.12,Wunderground v.1.15,2013-02-23 07:33:00,
2013-02-22 23:39:00,39.2,38.2,30.11,NNW,344,0.0,0.0,96,0.00,,,1.12,Wunderground v.1.15,2013-02-23 07:39:00,
2013-02-22 23:45:00,39.1,38.1,30.11,NNW,344,0.0,0.0,96,0.00,,,1.12,Wunderground v.1.15,2013-02-23 07:45:00,
2013-02-22 23:50:00,38.8,37.8,30.11,NNW,344,0.0,0.0,96,0.00,,,1.12,Wunderground v.1.15,2013-02-23 07:50:00,
2013-02-22 23:55:00,38.6,37.6,30.11,NNW,344,0.0,0.0,96,0.00,,,1.12,Wunderground v.1.15,2013-02-23 07:55:00,